Wind_Speed
11 11 11 11 11 11 10 10 10 9 8 8 8 8 8 8 8 7 7 6 6 7 8 8 9 10 12 12 12 12 13 14 15 15 16 16 15 16 16 16 16 17 16 16 16 16 16 15 15 14 14 13 13 13 13 12 12 12 13 13 13 14 13 13 13 12 11 11 10 10 11 11 12 12 12 12 13 13 13 14 14 15 16 17 17
11 11 11 12 13 12 11 11 11 10 9 9 8 7 8 9 9 9 7 6 6 7 7 8 8 9 10 11 11 12 12 13 14 15 15 16 15 15 16 16 16 16 16 15 15 16 16 16 15 15 14 14 13 13 13 12 12 12 12 12 12 12 12 12 12 12 12 11 11 11 11 11 11 11 11 11 12 12 13 13 14 15 17 17 18
12 12 12 13 14 13 12 11 10 10 9 8 8 8 9 10 10 9 8 7 6 7 7 8 9 8 9 10 10 10 11 11 12 14 14 15 15 15 15 15 15 15 16 15 15 15 16 16 15 14 14 13 13 13 12 12 12 11 11 11 11 11 12 12 12 12 12 11 11 11 11 11 11 10 11 11 12 13 13 14 15 16 16 17 17
13 13 13 13 13 12 11 11 10 9 9 8 8 9 10 12 12 11 10 9 7 6 7 9 10 9 8 8 9 9 10 10 11 12 13 13 13 14 14 14 15 14 15 14 14 14 14 14 14 14 13 13 13 13 12 12 11 11 11 11 11 11 12 12 12 12 11 11 11 10 10 10 10 10 11 11 12 13 14 14 15 15 16 17 17
13 13 13 13 13 12 12 11 11 11 11 11 10 11 12 13 13 12 12 11 9 7 8 11 12 10 8 7 8 8 9 9 9 11 12 12 12 12 13 14 14 13 13 13 13 13 13 13 13 13 13 13 12 12 12 12 11 11 11 11 12 11 11 11 11 11 10 10 9 9 9 9 10 10 11 12 12 12 13 14 15 16 16 17 18
13 12 12 12 13 13 13 13 14 14 15 15 14 14 14 14 14 14 13 12 10 9 9 12 12 11 9 8 9 9 9 9 9 10 11 11 10 11 12 13 12 12 12 12 12 12 12 12 12 12 12 12 11 11 12 12 12 11 11 11 11 11 11 10 9 9 8 8 8 8 8 9 9 10 10 11 12 12 13 14 15 16 17 17 18
12 12 12 13 14 15 15 15 16 17 18 18 18 17 16 16 16 15 14 13 12 11 11 12 12 11 10 10 11 10 9 9 9 10 10 10 9 10 11 12 11 11 11 11 12 12 12 12 11 11 11 11 10 10 10 11 11 11 11 11 11 10 10 9 9 9 8 8 8 8 9 9 9 9 10 11 11 12 13 14 14 15 17 17 18
11 12 12 14 15 16 16 16 17 18 19 19 19 18 18 17 16 15 15 14 13 13 13 13 12 11 11 11 11 10 9 9 9 9 9 9 9 9 10 11 11 11 11 12 12 12 12 11 11 11 10 9 9 9 9 9 9 9 9 10 10 10 10 10 10 9 9 9 8 8 9 9 8 9 10 10 11 12 13 13 14 15 15 17 18
11 12 13 15 16 16 16 16 17 17 18 19 19 18 17 16 15 15 14 14 14 14 14 14 14 13 12 11 10 10 9 8 8 9 9 9 9 9 10 11 11 12 12 12 13 12 11 11 11 11 10 9 8 8 8 8 8 8 8 9 9 10 10 10 11 10 10 10 9 9 9 9 8 9 9 10 11 11 12 12 13 14 16 18 20
11 12 13 15 16 16 16 16 15 15 16 18 18 18 16 15 14 14 13 12 13 13 13 13 13 14 13 12 12 11 9 9 9 9 9 10 10 9 11 12 13 13 12 12 12 12 11 11 11 11 10 9 9 8 8 8 9 9 9 10 10 11 12 12 12 12 11 11 10 10 9 8 8 9 9 10 10 10 11 12 14 16 19 21 23
11 12 13 14 15 15 15 14 13 13 15 16 17 17 17 16 15 15 14 13 13 12 12 12 12 13 13 13 12 12 11 10 10 10 11 11 11 12 12 13 13 13 12 12 12 12 11 11 11 11 10 10 9 9 10 10 10 10 11 12 12 13 13 13 13 12 12 11 10 9 9 8 8 9 9 9 9 9 11 13 16 19 21 23 24
11 12 13 14 14 14 13 12 11 12 13 14 15 16 17 17 16 16 17 16 16 15 14 13 12 12 12 12 12 13 13 12 11 11 12 13 14 14 14 14 14 13 13 12 11 11 11 10 10 10 10 10 9 9 10 10 10 11 11 12 12 13 13 13 13 13 12 11 10 9 9 8 8 9 8 8 9 10 12 15 17 20 21 23 24
11 12 12 13 13 12 11 10 10 10 11 12 14 15 17 17 17 17 18 18 18 18 17 16 14 13 12 12 12 13 13 12 12 12 13 14 15 15 14 14 14 13 12 11 11 10 10 10 10 10 10 10 9 9 10 10 10 11 11 12 13 13 14 14 13 13 12 11 10 9 8 7 7 8 8 8 10 11 13 15 17 19 21 23 24
11 12 12 12 12 11 9 8 8 9 10 11 12 14 16 17 17 17 18 19 19 18 18 17 16 15 13 12 12 12 12 12 12 12 12 13 13 14 13 13 12 11 10 10 10 10 10 10 9 10 9 9 10 9 10 10 10 11 12 13 13 14 14 14 14 14 14 13 11 10 8 6 6 7 8 8 10 11 13 15 17 19 21 23 24
11 12 12 12 11 10 8 7 7 8 9 10 11 12 14 15 16 17 17 17 18 17 17 17 16 16 14 13 13 13 12 12 11 11 11 11 11 11 11 10 9 9 8 8 9 10 9 9 9 9 9 9 9 9 10 10 11 11 12 12 13 13 14 15 16 16 15 14 12 9 7 5 6 6 7 9 10 12 14 15 17 19 21 23 25
12 11 11 12 11 9 8 7 7 8 8 9 10 11 12 14 15 16 16 16 16 16 16 16 16 15 15 14 14 13 13 12 11 10 10 9 9 9 8 7 7 7 7 8 9 9 9 9 9 9 9 9 9 9 10 10 11 11 11 12 13 13 14 15 16 17 16 14 12 9 6 5 6 7 8 10 11 13 14 16 18 20 21 23 25
12 11 11 11 11 9 8 8 7 8 8 8 8 9 10 12 13 14 14 14 14 14 14 15 14 14 15 15 13 14 14 12 11 10 9 9 8 7 7 6 6 6 8 9 9 8 8 8 8 8 9 8 9 9 9 10 10 11 12 12 12 13 14 15 17 17 17 16 13 10 7 7 7 8 9 11 12 13 15 16 18 20 22 24 26
11 11 11 10 10 9 8 8 7 7 7 7 8 8 9 9 11 12 12 12 12 12 13 14 13 13 13 14 13 14 14 13 11 11 10 9 9 8 8 7 7 8 9 9 8 7 7 7 7 7 8 8 8 8 9 9 10 10 11 11 12 13 14 16 17 18 18 17 15 12 9 9 9 10 11 12 13 14 16 17 19 21 23 24 26
11 11 10 10 9 8 8 7 7 6 6 7 7 7 8 8 8 9 10 10 10 10 11 12 12 12 12 12 12 13 13 13 12 11 11 10 10 9 9 9 9 9 9 9 7 7 7 7 7 7 7 7 8 8 9 9 9 9 10 11 12 14 15 16 17 17 17 17 16 14 12 11 11 12 13 14 15 16 17 18 20 21 23 25 26
10 10 9 9 8 7 6 6 6 6 6 6 6 6 6 7 7 7 8 8 8 8 9 10 10 11 11 11 11 11 12 12 11 11 10 10 9 8 9 9 8 8 8 8 7 7 7 6 6 7 8 8 8 8 9 9 9 9 10 11 13 14 16 16 17 17 16 16 16 16 14 14 14 14 14 15 16 17 18 19 21 22 24 26 28
8 8 8 7 7 6 6 5 5 5 5 5 5 5 5 6 6 6 6 6 7 6 7 8 8 9 9 9 10 10 10 10 10 10 9 9 8 8 8 8 7 7 7 7 7 7 6 6 7 8 8 8 8 9 9 9 10 10 11 12 13 14 16 16 16 16 16 16 16 16 16 16 15 15 15 16 16 17 18 20 21 23 25 27 28
7 7 7 7 7 7 6 6 5 4 4 4 4 4 4 5 5 5 5 5 5 5 5 5 6 6 7 8 8 9 9 9 9 9 9 8 7 7 7 6 6 6 6 7 7 7 7 7 7 8 8 8 9 9 9 10 10 11 11 12 13 14 15 15 15 15 15 16 16 17 17 17 16 15 15 16 17 18 19 20 22 24 26 27 29
8 7 7 7 7 7 7 7 6 5 4 4 4 3 3 3 4 4 5 5 4 4 4 4 4 5 5 6 7 8 8 8 8 8 7 6 6 6 6 6 6 6 6 6 7 6 6 6 7 7 8 8 9 9 10 10 11 11 11 12 13 14 14 14 14 14 15 15 16 17 17 17 16 16 16 17 17 18 20 21 23 25 27 29 30
9 9 8 8 7 7 7 7 7 7 6 6 5 5 4 4 4 4 4 5 5 4 4 4 4 4 5 5 6 7 7 8 7 7 6 5 5 5 5 5 5 6 6 6 6 6 6 6 7 7 8 9 9 10 10 10 11 11 11 12 13 14 14 14 14 14 14 15 15 16 17 17 17 17 17 18 18 19 21 23 24 26 28 30 31
10 10 9 8 7 7 6 6 7 7 7 7 7 7 7 6 6 5 5 4 5 4 4 4 4 4 4 4 5 5 6 7 7 7 5 4 4 4 5 5 5 5 6 6 6 7 7 7 7 7 8 8 8 8 9 10 11 11 12 13 14 14 14 14 14 14 14 15 16 17 17 18 18 19 19 20 21 22 23 24 26 27 29 31 32
10 9 9 8 7 7 6 5 5 5 5 6 6 7 7 7 7 7 6 6 5 5 5 4 4 4 4 4 4 5 5 6 7 7 6 5 5 5 6 6 6 6 6 7 8 8 8 7 7 7 7 7 7 7 8 10 12 13 14 14 14 14 14 14 14 14 15 16 16 17 18 19 20 21 21 22 23 24 25 26 27 28 30 32 34
10 9 9 9 8 7 6 5 3 2 2 2 2 3 4 5 6 7 7 7 7 7 7 7 6 5 5 5 5 5 5 5 5 7 7 6 6 6 7 7 7 7 8 8 9 8 8 8 8 7 7 7 7 8 10 12 13 15 15 15 14 14 14 14 15 15 16 16 17 17 18 19 20 22 23 23 24 24 25 26 28 29 32 34 35
11 11 10 9 8 7 6 5 4 3 2 2 2 2 2 2 3 4 5 6 6 7 8 9 9 8 8 7 6 5 5 5 5 6 7 7 7 6 7 8 8 8 8 8 8 9 9 9 9 9 9 10 11 12 13 14 14 15 15 15 15 15 15 15 15 16 17 17 18 18 19 20 21 22 23 24 25 26 26 27 29 31 33 35 35
13 12 11 10 9 7 7 6 5 5 5 5 5 5 5 5 4 4 4 4 4 5 6 7 8 9 9 9 9 7 6 5 5 6 7 7 8 7 7 8 8 9 9 8 8 9 9 10 11 11 12 12 13 14 15 15 16 16 16 16 16 16 16 16 16 16 17 17 18 18 19 20 21 23 24 25 26 27 28 29 30 32 34 35 36
14 13 12 11 10 9 8 8 7 7 7 7 7 7 7 7 6 6 7 6 6 5 5 5 6 7 8 9 9 9 8 7 6 6 6 6 7 7 7 7 8 8 8 8 8 9 10 11 12 13 14 14 15 15 16 16 16 16 16 16 16 16 17 17 17 17 18 18 18 19 19 20 21 23 25 27 28 29 29 30 32 34 35 37 37
16 14 13 12 11 10 10 9 9 8 8 8 8 8 7 7 7 7 7 8 8 7 7 6 6 6 7 7 8 9 9 8 7 5 5 5 5 6 6 6 7 7 7 7 8 9 10 11 12 13 14 15 15 15 15 15 15 15 15 15 16 16 17 17 18 19 19 19 20 20 21 21 23 24 26 28 29 30 30 32 34 35 36 37 38
16 15 13 12 12 11 11 10 9 8 8 8 8 8 7 7 7 7 7 7 7 8 7 7 7 6 6 7 7 8 8 7 6 5 4 4 4 4 5 5 6 6 7 8 8 9 10 10 11 12 13 14 14 15 15 14 14 14 15 15 16 16 17 18 19 19 20 21 21 21 22 23 24 25 27 28 30 31 32 33 34 34 35 37 38
16 14 13 12 12 11 11 10 10 9 9 9 9 9 8 7 7 7 7 6 6 7 7 7 7 6 7 7 7 7 7 7 6 4 3 3 3 3 3 4 5 6 7 8 9 10 10 10 10 11 11 12 13 13 14 14 14 15 15 16 16 17 18 19 20 20 21 22 23 24 24 24 25 26 27 29 30 32 33 34 34 35 35 37 38
16 14 14 13 12 12 11 11 10 10 10 10 10 10 9 8 8 7 7 6 6 6 6 6 6 6 7 7 7 7 8 8 6 4 3 3 2 2 3 3 4 5 6 7 9 10 11 11 10 11 11 12 12 13 14 14 14 15 16 17 18 18 19 20 21 22 23 24 25 26 27 27 27 28 29 30 32 33 35 35 36 36 37 37 39
16 15 15 14 13 12 12 11 11 10 11 11 11 11 10 9 9 8 7 7 6 6 6 6 7 7 7 7 7 7 8 7 6 5 4 4 3 2 3 3 4 5 6 7 8 9 10 12 12 13 13 13 14 15 15 15 16 16 17 18 19 20 21 22 23 24 24 26 27 28 30 30 30 31 31 32 33 34 36 37 37 37 38 39 40
17 16 15 14 13 12 12 12 11 11 11 11 11 10 10 10 9 9 8 8 8 7 7 7 7 7 7 7 6 6 7 6 5 5 5 5 4 4 3 4 4 5 6 7 9 9 11 12 14 15 16 17 17 17 18 18 18 19 20 19 20 21 23 23 24 25 26 27 28 29 31 31 32 33 33 34 35 36 36 37 38 38 38 39 40
18 17 15 14 14 13 13 12 12 11 10 10 10 9 10 10 10 10 10 9 9 8 8 7 6 6 6 5 4 4 4 4 4 5 5 5 5 5 6 6 6 6 7 8 10 10 11 13 15 15 16 18 19 20 20 20 21 22 22 21 21 22 24 24 25 26 26 27 28 29 31 32 32 33 34 35 35 36 37 38 38 38 38 40 41
19 18 16 15 15 14 13 12 11 10 10 10 10 10 10 11 11 12 11 10 9 8 6 5 5 5 4 4 3 2 1 0 2 3 5 6 6 6 7 8 9 9 10 10 11 12 12 13 15 16 17 18 19 20 22 22 22 24 25 23 22 22 23 23 25 26 26 26 26 28 30 31 32 33 34 35 36 36 37 38 38 38 38 39 41
20 18 17 17 16 15 13 12 11 11 10 10 10 10 11 11 12 12 11 10 8 6 6 6 6 5 5 4 4 3 3 4 3 3 3 4 6 7 9 10 10 11 12 13 13 13 14 14 15 16 18 18 18 19 22 23 23 25 27 26 24 24 24 23 24 26 27 27 26 27 29 31 33 34 34 35 36 36 37 38 39 39 39 39 40
20 19 19 18 16 14 13 12 11 11 11 10 10 10 10 11 11 11 11 9 8 8 8 7 6 5 5 4 4 5 5 5 3 2 2 3 5 7 9 10 11 12 13 14 15 15 16 16 16 17 18 19 19 20 21 23 23 25 28 28 27 27 27 25 25 27 29 29 29 28 29 31 33 34 34 35 36 37 37 39 40 40 40 39 40
21 21 20 18 16 14 13 13 12 11 11 10 10 10 10 11 11 12 11 10 10 10 10 9 8 6 5 4 4 4 3 2 1 1 3 4 6 8 10 12 12 14 15 16 16 17 17 17 17 18 19 19 20 22 23 24 25 26 28 29 28 29 30 28 27 29 31 32 31 30 30 31 33 34 35 36 37 38 38 38 39 40 40 40 40
21 21 20 17 15 14 14 13 12 11 11 10 10 10 11 11 12 13 13 13 12 12 11 9 8 6 5 3 2 2 0 1 3 4 6 8 10 11 13 14 15 16 17 17 18 18 19 19 20 21 21 20 20 24 25 26 28 29 29 30 29 29 31 30 29 31 33 35 34 31 30 32 34 34 35 37 39 40 39 38 38 39 39 39 39
21 21 19 17 16 15 15 14 13 12 11 11 11 12 13 13 14 14 14 14 13 12 11 10 8 6 4 3 2 2 3 4 6 7 9 11 13 14 16 17 18 18 19 19 20 21 22 22 22 24 25 23 23 25 27 27 29 30 30 30 29 29 31 31 29 30 33 37 36 33 30 33 36 36 36 38 41 42 41 40 38 38 38 38 38
22 20 19 17 17 16 15 14 14 13 12 12 13 14 15 15 15 14 14 13 13 12 11 10 8 6 5 4 4 4 5 7 9 10 12 14 16 17 19 19 19 19 20 20 21 22 24 24 24 25 26 26 26 26 28 30 31 32 31 31 30 30 31 31 29 29 32 36 37 35 32 34 37 38 38 39 42 44 43 42 40 39 39 39 39
22 20 19 19 19 18 16 15 15 15 14 14 14 15 16 16 15 15 14 14 13 12 11 10 9 7 6 6 6 6 8 10 11 13 15 17 19 20 21 22 22 22 22 22 23 24 26 26 26 26 27 28 28 27 30 33 34 34 34 33 33 33 33 32 31 31 32 35 36 37 35 34 37 39 39 39 43 45 44 43 42 41 40 40 41
22 20 20 20 20 19 17 17 18 17 17 16 16 16 17 17 16 16 15 15 15 14 14 12 10 9 8 8 8 9 11 12 13 15 17 19 21 23 23 24 24 24 24 25 26 27 28 29 28 27 28 31 31 30 32 35 36 36 36 36 37 37 36 35 34 34 35 36 37 38 36 34 38 40 39 39 44 46 46 45 44 43 42 42 42
22 22 23 22 22 21 20 20 20 19 18 18 18 18 19 19 18 16 16 15 15 15 14 14 12 11 11 10 10 11 13 14 16 18 20 22 23 24 24 25 25 25 25 26 27 29 30 30 31 30 31 33 35 35 36 38 39 39 40 40 40 40 40 38 36 37 39 40 42 42 39 36 40 43 41 41 45 46 47 47 45 44 44 44 44
23 24 24 24 24 24 23 22 21 20 20 20 19 20 20 20 19 17 16 16 16 15 15 15 14 13 13 13 13 13 15 16 18 20 22 24 25 25 25 27 27 27 26 27 29 31 31 32 33 34 34 36 37 38 38 40 41 42 44 44 44 44 44 41 39 39 39 41 43 45 43 39 41 44 44 44 47 48 48 49 47 45 45 45 46
23 24 25 26 27 27 26 24 23 22 22 22 21 22 22 22 21 19 18 19 17 16 16 17 17 16 15 15 15 15 16 17 20 22 24 26 26 26 27 28 29 28 28 29 31 32 33 34 35 36 37 38 39 39 39 40 41 43 45 44 43 47 48 45 44 42 40 40 41 45 47 45 43 45 46 46 48 48 48 50 50 48 46 46 47
22 23 25 28 29 29 28 26 25 24 24 24 24 24 24 24 23 21 21 21 20 18 18 19 20 19 17 16 17 17 17 19 22 24 26 28 28 28 29 30 30 29 29 31 32 32 33 35 36 37 39 41 42 42 43 45 47 48 49 46 46 51 52 51 51 48 44 43 43 48 55 54 51 52 53 53 55 53 51 50 49 48 47 47 48
21 23 25 27 29 30 30 28 27 26 27 27 27 26 26 26 25 24 24 24 22 20 20 21 22 21 18 17 17 19 20 22 24 26 28 30 30 31 33 33 33 32 33 35 35 34 34 34 34 36 39 42 45 46 47 50 51 52 54 53 53 56 57 55 54 52 49 47 47 52 58 58 58 60 60 61 63 60 56 54 53 50 47 45 47
Wind_Direction
105 102 100 100 98 95 92 90 88 84 81 80 79 85 90 91 90 87 81 77 76 78 81 81 82 87 90 89 85 83 81 82 83 83 83 83 83 83 83 84 85 86 87 86 87 88 88 87 85 85 85 84 83 82 81 79 78 77 76 75 75 77 80 82 83 83 82 79 75 70 65 61 58 55 53 50 49 47 45 44 43 43 43 43 43
104 100 98 99 97 95 92 89 88 84 81 79 78 81 87 90 92 93 90 80 71 71 74 76 79 82 86 87 87 86 84 83 84 83 83 84 83 83 83 84 85 86 87 86 86 87 88 88 87 86 86 87 86 84 83 80 78 78 78 77 76 76 77 78 79 78 75 72 69 65 62 59 56 53 52 50 49 48 46 45 44 45 46 46 45
104 101 98 97 96 95 91 87 86 86 85 84 82 82 84 85 86 90 90 83 74 72 74 77 81 81 81 86 88 88 88 87 87 87 86 86 86 86 86 86 86 87 88 88 87 88 89 90 90 90 89 88 87 86 84 81 79 77 76 76 75 74 73 72 71 69 67 65 61 59 57 56 54 52 51 50 48 48 49 49 49 49 49 47 45
101 100 100 98 95 93 89 86 83 83 84 85 85 83 82 82 84 87 88 89 86 80 77 80 86 87 85 86 87 89 89 88 90 91 90 89 89 90 90 89 88 89 90 90 89 88 89 90 91 92 92 90 88 86 84 82 78 75 74 72 70 69 68 67 67 65 64 62 60 58 57 56 54 54 54 54 52 52 52 52 51 51 50 47 43
98 99 99 95 91 89 87 86 83 82 83 86 87 86 84 84 85 87 89 92 94 91 80 80 87 94 95 90 91 92 91 91 92 93 94 93 94 95 94 92 91 92 91 91 89 87 87 87 88 88 88 88 87 86 84 81 77 73 71 69 67 65 64 64 65 65 64 64 63 61 61 59 57 56 57 58 58 56 55 53 51 50 48 44 40
98 98 95 89 88 89 89 87 84 83 84 86 86 84 83 83 85 88 90 90 90 89 82 82 89 98 101 98 98 96 95 97 97 96 97 97 100 101 99 97 96 96 94 92 89 87 87 87 86 84 82 81 80 80 80 78 76 73 71 70 69 67 66 64 64 64 63 64 65 63 62 61 60 60 59 58 59 57 55 53 49 45 42 39 36
99 97 93 90 90 91 90 88 87 86 86 86 85 83 81 81 83 85 87 86 83 81 79 82 89 92 93 94 95 97 98 101 102 102 102 103 105 104 101 100 100 100 98 95 91 89 89 88 87 84 81 78 75 73 73 74 75 76 76 75 74 72 70 67 65 62 59 58 59 60 60 59 59 60 60 58 57 55 52 49 44 39 36 32 28
100 100 98 97 96 94 93 92 92 91 89 87 86 84 82 80 82 84 85 86 85 83 80 82 86 88 88 89 92 96 100 104 106 107 106 108 108 105 101 99 101 103 101 98 95 93 91 89 86 83 80 78 77 75 74 75 76 77 79 79 77 74 69 64 61 57 54 51 51 54 57 57 56 57 58 57 53 50 48 45 40 35 30 26 22
104 103 104 104 103 101 100 99 97 94 92 89 85 80 78 77 79 82 84 87 87 86 84 84 86 87 88 89 91 96 104 111 112 111 110 108 107 103 99 100 102 103 103 101 98 96 92 89 86 82 79 76 74 74 74 75 76 75 75 75 72 67 61 55 51 47 43 40 39 41 46 49 49 50 50 50 48 45 41 36 32 28 26 25 22
110 109 110 110 109 108 106 104 100 97 93 88 83 78 74 70 71 75 80 84 87 88 87 87 87 89 90 89 90 94 100 107 110 112 111 108 105 101 101 104 105 105 104 101 97 95 91 87 85 82 79 75 72 70 69 68 68 66 61 58 54 50 48 45 41 37 34 31 28 28 31 36 37 39 39 39 39 36 31 29 28 27 26 24 22
119 116 117 117 115 114 111 108 103 98 92 88 85 80 74 68 70 75 79 83 86 87 87 88 88 90 92 93 92 91 89 91 99 107 110 109 106 103 104 106 107 105 103 99 96 93 90 88 86 85 83 80 77 74 71 65 60 56 51 47 44 40 38 37 33 28 25 22 18 16 17 21 24 26 27 26 25 24 25 27 28 27 25 22 20
125 122 124 125 123 120 116 112 106 99 93 89 84 79 73 70 73 78 81 82 83 84 84 85 87 89 92 94 94 91 88 87 91 101 107 107 106 105 105 104 102 99 96 93 91 90 89 89 89 90 89 85 82 78 73 66 59 53 48 43 39 35 31 29 25 19 16 12 8 6 5 9 13 15 16 16 18 22 26 27 26 24 22 19 17
131 130 132 133 131 126 121 115 109 104 97 90 85 80 75 72 74 78 79 79 79 79 79 80 83 86 90 93 94 93 94 92 92 97 102 104 104 103 102 100 96 92 89 87 87 88 87 88 90 91 89 85 79 72 67 62 56 50 45 40 35 32 28 24 20 15 12 9 5 1 358 1 7 8 10 13 18 22 24 24 23 21 19 17 15
138 139 141 141 138 133 126 117 111 107 102 95 89 83 78 73 72 74 76 76 76 76 75 75 76 79 84 90 94 96 97 97 94 94 97 99 100 100 100 97 92 87 83 85 90 93 93 93 94 90 86 82 76 70 62 55 49 44 39 36 33 30 27 22 19 15 12 10 7 4 2 5 8 8 10 13 16 19 20 21 20 18 16 14 11
145 146 146 145 143 138 129 119 111 104 101 97 90 84 80 75 71 71 71 72 73 74 73 73 73 73 75 81 89 93 94 93 92 91 93 95 98 100 99 94 87 80 75 84 94 98 98 96 91 87 81 75 71 65 58 51 45 41 37 34 31 28 25 22 19 16 12 10 9 10 15 17 12 9 9 10 12 14 16 16 16 14 11 9 8
152 152 150 146 144 140 131 120 108 97 92 90 86 83 80 77 72 69 69 69 70 70 69 70 72 72 72 73 80 88 90 89 90 93 96 98 100 99 96 88 78 70 72 82 91 94 94 90 84 79 74 67 60 54 50 45 39 35 31 28 26 24 24 23 21 18 15 12 12 16 23 20 11 7 5 5 7 8 10 10 9 8 6 5 4
156 156 153 149 146 142 134 120 107 95 87 83 81 79 78 78 76 72 70 69 69 69 67 66 66 69 72 73 75 82 86 88 89 91 92 94 94 90 85 79 72 69 72 78 82 83 83 80 77 73 68 58 49 44 40 37 32 27 24 21 20 21 22 22 21 20 19 17 15 16 16 10 4 0 359 359 1 2 3 3 3 2 2 1 1
159 159 156 152 149 145 138 124 112 99 88 81 76 73 73 75 76 75 72 70 69 68 66 64 61 60 67 70 71 76 81 85 85 84 84 83 80 77 73 69 67 65 66 70 71 71 68 64 60 56 53 47 39 33 30 27 24 20 18 16 15 16 16 17 18 19 20 20 18 13 6 0 357 354 353 353 355 357 357 357 358 358 358 358 356
159 163 161 156 151 146 139 128 116 105 92 81 71 66 66 67 71 74 73 71 68 67 66 65 61 56 58 63 66 69 74 79 81 80 79 77 75 75 74 70 67 66 66 67 64 60 54 48 42 40 37 32 27 23 20 17 14 12 12 11 10 11 11 11 14 16 18 21 21 16 7 357 352 349 348 350 352 353 353 353 354 354 354 353 352
158 161 162 158 154 147 138 128 119 110 98 85 72 62 57 57 61 67 71 71 68 65 65 64 61 57 55 57 62 65 69 72 76 79 78 76 74 75 76 73 70 70 68 63 56 48 42 34 28 27 23 17 14 13 11 8 6 6 8 8 8 8 7 7 10 13 15 19 20 18 12 3 355 349 346 348 350 350 349 349 350 350 350 349 349
155 153 153 153 151 146 139 129 119 111 102 94 82 67 55 50 47 52 59 64 65 61 62 61 59 59 57 54 57 61 65 67 70 73 76 76 75 71 71 70 66 65 61 55 46 35 27 22 19 18 14 7 4 5 4 4 3 4 6 5 4 4 3 3 6 8 12 16 18 18 15 8 0 352 346 345 346 346 346 347 347 348 348 347 347
153 145 142 143 142 140 134 126 120 115 106 99 94 82 62 52 43 39 39 46 53 53 55 58 55 57 58 55 54 55 57 60 62 64 66 70 71 68 63 60 54 51 52 48 40 30 20 17 16 14 10 6 3 2 2 3 2 1 1 359 359 1 1 2 5 9 13 16 16 15 14 10 4 357 350 347 346 346 346 346 346 345 345 345 345
153 148 143 140 136 131 125 121 116 113 106 97 93 88 71 57 49 37 31 32 36 37 40 49 51 50 51 52 51 50 48 48 50 54 56 59 64 66 59 51 44 37 37 40 37 29 21 20 21 17 12 8 4 2 2 2 0 358 358 358 1 5 6 6 10 13 15 15 15 14 12 10 7 2 358 353 350 349 347 346 346 345 344 344 345
162 157 152 145 135 125 116 111 105 99 93 84 79 74 66 58 53 43 34 30 25 22 22 28 38 42 41 42 42 44 42 40 41 43 45 46 54 68 69 61 51 37 31 33 34 27 20 18 20 18 13 10 6 4 5 7 7 7 9 12 15 16 14 14 15 15 14 14 13 12 12 11 10 8 4 360 356 353 351 350 348 347 347 347 347
172 166 159 152 140 127 114 104 96 90 83 76 70 66 60 53 51 48 41 37 30 24 21 17 20 24 28 28 28 31 31 30 32 35 38 36 30 47 66 65 56 43 31 26 23 19 14 12 15 18 17 15 11 10 17 24 27 28 29 28 26 23 19 16 13 12 11 11 12 12 13 14 13 13 10 6 3 0 358 356 355 354 353 352 352
173 166 161 156 149 140 131 118 103 92 82 74 65 61 57 52 50 49 46 43 38 30 25 18 11 9 12 13 12 16 18 17 21 24 29 34 24 22 37 44 39 34 26 19 16 14 15 16 20 24 24 21 19 19 27 35 38 37 35 33 30 25 20 16 12 12 12 13 14 15 17 17 17 16 15 12 9 7 4 3 2 2 0 358 356
168 167 165 163 159 156 154 151 145 129 107 82 60 49 47 45 44 47 46 43 41 37 33 26 19 9 1 358 359 2 6 9 14 17 20 27 28 25 28 30 28 27 26 21 18 18 19 22 23 25 26 24 24 25 29 34 37 37 35 32 31 26 22 19 16 16 16 17 18 19 20 19 18 17 15 13 10 7 4 3 2 2 1 359 358
166 170 171 169 169 171 178 184 193 206 224 244 259 277 304 333 2 20 28 31 32 33 32 29 24 19 10 1 354 350 351 358 8 14 17 20 25 31 35 36 35 36 36 31 26 22 20 20 21 21 21 20 21 23 26 29 32 34 32 30 28 26 23 21 19 18 18 18 18 19 19 18 17 15 13 10 8 5 2 359 358 357 357 357 357
169 174 176 179 183 189 201 213 224 234 246 258 263 265 268 276 288 306 320 335 350 3 13 17 17 15 12 6 360 351 344 347 1 11 16 19 20 23 32 38 38 35 33 28 23 19 16 15 16 18 18 17 17 18 21 22 23 25 26 24 21 18 17 15 13 12 11 11 12 13 14 14 13 12 10 7 5 3 1 359 358 357 357 357 358
177 182 185 190 199 209 220 232 241 249 257 263 267 267 266 267 272 279 289 297 304 315 329 343 353 358 360 0 359 356 350 346 353 6 13 16 16 15 17 24 29 25 18 11 7 6 6 7 9 11 12 12 13 14 15 14 14 15 16 15 12 8 6 6 5 4 3 3 3 3 4 5 5 3 2 1 0 360 359 358 356 356 356 357 358
185 189 193 199 209 220 230 240 246 253 258 261 263 266 267 269 270 272 277 285 291 296 303 312 323 332 338 344 349 354 354 350 349 356 4 10 14 10 6 7 10 7 360 355 353 354 357 0 1 2 4 5 6 8 9 8 6 4 4 4 2 358 356 356 356 357 356 356 356 356 356 357 357 356 355 355 355 355 355 354 353 353 355 356 357
190 193 198 205 213 222 230 237 244 249 254 259 262 263 267 271 274 275 275 280 286 290 294 301 308 315 319 325 333 340 347 350 347 344 345 353 5 9 5 359 356 351 345 344 345 348 353 355 355 355 356 358 358 359 0 0 358 355 354 352 350 348 348 348 348 349 349 350 351 352 353 354 354 353 352 351 351 351 351 351 351 352 353 355 355
194 197 203 208 211 217 225 232 239 245 251 257 262 264 266 267 270 275 278 280 282 285 291 297 303 306 306 309 315 321 333 343 343 334 321 320 343 8 9 1 353 346 342 341 344 348 350 350 351 351 350 350 351 351 352 352 350 346 344 342 341 340 340 340 341 343 343 344 346 348 350 351 352 351 350 349 348 348 348 348 349 350 351 353 354
197 199 205 209 212 217 224 231 237 244 250 255 259 263 263 263 264 266 271 275 276 279 284 290 295 297 296 298 303 311 324 337 341 338 325 316 332 353 357 357 349 342 338 339 343 346 345 345 347 349 349 349 348 347 347 346 343 340 337 335 335 335 336 337 338 340 341 342 343 345 347 348 349 349 348 347 346 345 346 346 346 347 349 351 352
198 202 207 212 216 220 226 232 237 242 247 251 255 258 261 261 260 259 259 261 264 269 274 280 285 287 289 293 299 308 319 333 345 350 350 354 0 350 337 339 337 332 330 331 339 342 339 340 343 345 346 347 348 346 344 342 340 337 334 333 333 334 336 338 338 340 342 343 344 345 345 346 346 346 346 345 344 344 344 344 344 345 346 348 350
201 207 212 216 219 221 225 231 237 241 245 249 251 252 254 254 253 253 251 251 255 261 268 275 277 279 281 285 293 303 312 326 345 355 359 6 9 355 343 341 338 331 326 328 337 342 339 337 338 340 340 340 341 342 340 339 338 335 334 335 335 335 336 338 339 340 343 345 345 344 343 343 343 343 342 342 342 342 341 342 342 342 344 345 347
205 211 213 216 219 221 225 230 237 242 245 246 245 242 240 241 242 244 246 248 254 263 268 270 267 264 265 268 275 283 294 315 339 352 356 359 359 355 351 353 355 350 341 339 342 345 343 338 335 338 337 335 335 335 334 335 335 333 333 336 338 336 336 338 337 338 341 343 343 341 339 338 338 338 338 338 339 339 340 341 341 342 343 344 344
208 212 213 216 219 222 226 230 235 239 239 238 236 232 230 230 233 237 243 248 254 258 254 243 235 232 231 227 225 227 224 29 15 7 359 354 354 352 350 357 2 0 355 352 351 350 348 342 337 337 336 335 335 331 327 329 331 329 328 332 338 336 334 337 335 333 336 338 338 337 334 333 333 333 334 334 335 336 337 339 340 340 341 342 342
209 212 213 217 220 223 227 229 231 232 231 230 230 227 225 225 228 232 236 238 236 226 210 202 203 202 193 178 167 151 122 106 95 70 28 2 353 345 344 352 357 355 352 349 348 347 346 344 339 334 333 336 335 329 323 324 326 323 320 326 333 332 332 336 334 329 329 331 332 332 330 328 327 328 330 330 330 332 334 335 336 338 339 339 340
209 211 214 218 222 223 224 226 228 228 226 224 221 220 218 215 215 215 215 211 200 188 182 180 180 176 165 149 133 118 109 106 103 91 44 359 348 338 335 340 344 344 342 339 339 338 338 339 337 330 330 333 331 324 319 319 320 316 315 321 328 326 326 332 332 327 324 324 326 328 328 326 323 323 326 327 327 329 332 332 333 334 335 336 337
209 212 217 220 222 223 221 223 225 224 222 220 216 213 208 201 197 194 191 184 176 171 167 165 165 162 154 143 126 116 109 94 46 342 333 333 334 329 326 329 332 333 332 332 332 332 331 333 332 326 328 331 325 318 317 317 315 311 312 318 324 322 321 327 329 325 321 319 320 323 326 324 321 321 324 325 324 326 329 330 331 333 334 334 335
211 215 218 220 222 223 223 223 222 219 217 215 210 207 201 193 187 181 177 173 168 167 165 167 172 170 165 158 144 143 159 315 311 316 321 322 325 324 321 323 326 328 329 329 328 328 329 331 329 326 328 329 321 315 316 316 313 311 312 316 319 318 317 320 324 322 318 315 315 320 325 321 318 320 323 324 323 324 326 328 329 332 334 335 335
212 216 218 219 220 224 226 225 224 219 213 209 205 202 197 191 184 179 176 173 171 171 174 180 186 186 185 193 215 254 285 296 303 311 314 315 318 317 317 320 324 326 327 327 326 326 325 327 328 327 327 327 321 316 317 314 311 312 314 316 317 315 312 314 319 318 314 311 313 320 323 319 318 321 323 322 321 320 322 325 327 329 331 332 333
214 218 219 220 221 225 227 226 226 221 213 208 204 201 198 194 190 186 183 180 179 181 186 193 200 205 210 221 239 264 282 291 300 306 307 309 311 311 313 317 320 322 323 322 323 322 320 322 324 325 324 322 319 318 316 312 311 314 316 315 314 311 309 312 316 316 312 310 312 316 318 318 317 317 320 321 318 317 319 321 323 325 326 327 329
216 219 222 223 224 226 227 225 225 221 214 208 206 205 204 201 200 198 194 191 191 192 197 204 213 222 229 236 248 265 277 286 294 298 301 304 305 307 310 312 315 317 316 317 319 317 316 317 319 321 320 317 317 316 311 310 313 314 313 312 310 308 308 310 313 314 311 309 308 309 313 315 312 311 316 317 313 312 315 317 318 320 321 322 324
217 220 225 228 228 228 227 226 225 223 218 212 209 210 211 210 209 208 205 203 202 204 207 212 218 226 233 241 252 266 276 284 289 292 295 298 299 301 305 307 309 309 309 313 314 312 312 312 314 316 314 313 315 315 311 311 314 313 311 309 307 306 307 308 310 309 307 305 303 303 307 309 305 307 312 311 306 307 310 311 313 315 316 317 319
222 223 226 229 231 230 227 226 226 224 221 217 215 216 218 219 218 215 212 209 209 212 217 220 225 231 236 243 253 263 273 280 285 287 289 290 291 295 297 298 297 297 300 303 303 304 307 307 308 310 309 309 312 314 312 312 312 311 310 309 307 306 305 305 304 304 303 303 302 302 306 307 304 305 307 303 300 302 305 306 308 310 311 313 314
227 228 228 229 231 231 227 226 227 226 224 221 221 223 225 226 225 222 218 215 214 218 224 227 231 236 241 247 253 261 270 278 282 283 284 285 288 291 292 292 291 292 295 295 295 299 301 300 302 305 305 306 309 311 311 310 309 308 306 305 306 304 301 298 297 297 298 299 301 302 304 304 301 300 299 297 295 297 300 302 304 305 307 308 309
230 232 231 229 229 229 228 227 226 225 226 225 224 227 231 232 230 228 224 222 221 224 227 231 235 238 244 250 256 262 269 276 280 281 283 285 289 291 293 294 294 295 296 294 294 296 297 299 302 304 305 306 307 309 309 308 307 305 301 301 301 298 293 291 290 289 289 293 296 296 297 297 294 291 291 290 291 293 295 297 298 299 302 303 304
232 234 233 231 229 229 229 227 224 223 225 226 226 228 234 236 235 232 229 227 228 229 230 233 236 239 244 251 258 265 270 274 277 279 282 286 290 293 294 295 297 298 295 291 291 293 295 298 302 304 306 307 306 309 312 312 311 309 306 306 302 296 292 292 292 291 290 292 296 296 296 297 295 294 293 292 293 293 292 292 294 295 297 297 298
233 236 237 235 232 230 229 228 226 224 226 228 228 229 233 237 237 236 234 231 231 232 234 235 238 240 244 252 261 267 270 272 276 279 282 287 293 295 296 298 301 300 293 289 290 290 290 295 299 305 309 308 306 311 316 315 313 310 308 308 303 297 297 299 301 302 301 302 305 302 299 298 297 297 299 299 299 298 294 291 291 291 292 291 292
Height
5927 5927 5927 5927 5927 5927 5927 5928 5927 5927 5927 5926 5926 5926 5926 5926 5926 5925 5925 5925 5925 5925 5925 5925 5925 5926 5926 5926 5925 5925 5925 5925 5925 5925 5925 5925 5925 5925 5925 5925 5924 5924 5924 5924 5924 5924 5924 5923 5923 5923 5923 5923 5923 5923 5922 5922 5922 5922 5921 5921 5920 5920 5919 5919 5919 5919 5919 5918 5918 5918 5917 5917 5917 5916 5915 5915 5914 5913 5912 5911 5911 5910 5909 5908 5907
5928 5928 5928 5928 5927 5927 5928 5928 5928 5928 5928 5927 5927 5927 5927 5927 5927 5927 5926 5926 5926 5925 5925 5926 5926 5926 5926 5926 5926 5926 5926 5927 5927 5926 5926 5926 5926 5926 5926 5926 5926 5925 5925 5925 5925 5925 5925 5924 5924 5924 5924 5924 5924 5924 5923 5923 5923 5923 5922 5922 5922 5921 5921 5920 5920 5920 5920 5919 5919 5919 5918 5918 5917 5917 5916 5915 5914 5913 5913 5912 5911 5910 5910 5909 5908
5929 5929 5929 5929 5928 5928 5928 5929 5929 5929 5929 5928 5928 5928 5928 5928 5928 5928 5928 5927 5927 5926 5926 5926 5927 5927 5927 5927 5927 5927 5927 5928 5928 5928 5927 5927 5927 5927 5927 5927 5927 5926 5926 5926 5926 5926 5925 5925 5925 5925 5925 5925 5925 5925 5924 5924 5924 5924 5924 5923 5923 5922 5922 5922 5921 5921 5921 5920 5920 5919 5919 5918 5918 5917 5916 5916 5915 5914 5913 5912 5912 5911 5910 5909 5908
5930 5930 5930 5930 5929 5929 5929 5929 5929 5929 5929 5929 5929 5929 5929 5929 5929 5929 5929 5929 5928 5927 5927 5927 5927 5927 5927 5927 5927 5928 5928 5928 5929 5928 5928 5928 5928 5928 5928 5928 5928 5928 5927 5927 5927 5927 5927 5926 5926 5926 5926 5926 5926 5926 5925 5925 5925 5925 5925 5924 5924 5924 5923 5923 5922 5922 5921 5921 5920 5920 5919 5919 5918 5918 5917 5916 5915 5915 5914 5913 5912 5911 5910 5909 5908
5930 5931 5931 5931 5930 5930 5930 5930 5930 5930 5930 5930 5930 5930 5930 5930 5931 5931 5931 5930 5929 5928 5928 5928 5928 5928 5928 5928 5928 5929 5929 5929 5929 5929 5929 5929 5929 5929 5929 5929 5929 5929 5928 5928 5928 5928 5928 5927 5927 5927 5927 5927 5927 5926 5926 5926 5926 5926 5926 5926 5925 5925 5924 5924 5923 5922 5922 5921 5920 5920 5919 5919 5919 5918 5917 5917 5916 5915 5914 5913 5912 5911 5910 5909 5908
5932 5932 5932 5932 5932 5932 5931 5932 5932 5932 5932 5931 5931 5931 5931 5932 5932 5932 5932 5931 5930 5930 5929 5929 5929 5929 5929 5929 5930 5930 5930 5930 5930 5930 5929 5930 5930 5930 5930 5930 5930 5930 5930 5929 5929 5929 5929 5929 5928 5928 5928 5928 5928 5927 5927 5927 5927 5927 5927 5926 5926 5926 5925 5924 5924 5923 5922 5922 5921 5920 5920 5920 5919 5918 5918 5917 5916 5915 5914 5913 5912 5912 5911 5910 5909
5933 5933 5933 5933 5933 5933 5933 5933 5933 5933 5933 5933 5933 5933 5933 5933 5933 5933 5933 5932 5931 5931 5931 5931 5931 5931 5931 5930 5930 5930 5930 5931 5930 5930 5930 5930 5931 5931 5931 5930 5930 5930 5930 5930 5930 5930 5930 5930 5929 5929 5929 5929 5929 5928 5928 5928 5927 5927 5927 5927 5926 5926 5925 5925 5924 5924 5923 5923 5922 5921 5921 5920 5920 5919 5918 5917 5916 5915 5915 5913 5913 5912 5911 5910 5909
5934 5935 5935 5935 5934 5935 5935 5935 5935 5935 5935 5935 5935 5935 5935 5935 5935 5934 5934 5934 5934 5933 5933 5932 5932 5932 5932 5931 5931 5931 5931 5931 5931 5931 5931 5931 5932 5932 5931 5931 5931 5931 5931 5931 5931 5931 5931 5931 5931 5930 5930 5930 5930 5929 5929 5928 5928 5928 5927 5927 5927 5926 5926 5925 5925 5925 5924 5924 5923 5922 5921 5921 5920 5919 5918 5918 5917 5916 5915 5914 5913 5912 5911 5910 5909
5936 5936 5936 5936 5936 5936 5937 5937 5937 5937 5937 5937 5936 5936 5936 5937 5937 5936 5936 5935 5935 5935 5934 5934 5934 5933 5933 5933 5933 5933 5933 5932 5932 5932 5932 5932 5933 5933 5932 5932 5932 5932 5932 5932 5932 5932 5932 5932 5931 5931 5931 5931 5931 5930 5930 5929 5929 5929 5928 5928 5927 5927 5927 5926 5926 5925 5925 5924 5924 5923 5922 5921 5920 5919 5918 5918 5917 5916 5915 5914 5913 5913 5911 5910 5909
5937 5937 5937 5937 5937 5938 5938 5939 5939 5939 5939 5938 5938 5938 5938 5938 5938 5937 5937 5937 5936 5936 5936 5936 5935 5935 5935 5935 5934 5934 5934 5934 5933 5933 5933 5934 5934 5934 5933 5933 5933 5933 5933 5933 5933 5933 5933 5932 5932 5932 5932 5932 5932 5932 5931 5931 5931 5930 5930 5930 5929 5929 5928 5927 5927 5926 5925 5925 5924 5923 5922 5921 5920 5920 5919 5918 5917 5917 5916 5915 5914 5913 5911 5910 5909
5938 5938 5938 5938 5939 5939 5940 5940 5940 5940 5940 5939 5939 5940 5939 5939 5938 5938 5938 5938 5938 5937 5937 5937 5936 5936 5936 5936 5936 5936 5935 5935 5934 5935 5935 5935 5935 5935 5935 5935 5935 5935 5935 5934 5934 5934 5933 5933 5933 5933 5933 5933 5933 5932 5932 5932 5932 5932 5932 5931 5931 5930 5929 5928 5927 5927 5926 5925 5924 5923 5923 5922 5921 5920 5920 5919 5918 5917 5917 5915 5914 5913 5911 5910 5909
5939 5939 5939 5940 5940 5940 5941 5941 5941 5941 5940 5940 5940 5940 5940 5940 5940 5940 5940 5939 5939 5938 5938 5938 5937 5937 5937 5937 5937 5937 5936 5936 5936 5936 5936 5936 5936 5936 5937 5937 5936 5936 5936 5936 5935 5935 5934 5934 5934 5934 5934 5934 5934 5934 5933 5933 5933 5933 5932 5932 5931 5931 5930 5929 5928 5927 5926 5925 5924 5924 5923 5922 5922 5921 5920 5920 5919 5918 5917 5916 5914 5913 5912 5911 5909
5939 5940 5940 5941 5941 5941 5941 5941 5941 5941 5941 5941 5941 5941 5941 5941 5942 5942 5941 5941 5940 5939 5939 5939 5938 5938 5938 5938 5938 5938 5938 5938 5938 5938 5938 5937 5937 5938 5938 5938 5938 5938 5938 5937 5937 5936 5936 5935 5935 5935 5935 5935 5935 5935 5935 5935 5934 5934 5933 5933 5932 5931 5931 5930 5929 5928 5927 5926 5925 5924 5923 5923 5922 5922 5921 5920 5919 5918 5917 5916 5915 5913 5912 5911 5909
5940 5941 5941 5941 5942 5942 5942 5942 5942 5942 5942 5942 5942 5942 5942 5942 5943 5943 5943 5942 5942 5941 5941 5940 5940 5939 5939 5939 5939 5939 5939 5939 5940 5939 5939 5939 5939 5939 5940 5940 5940 5939 5939 5939 5938 5937 5937 5937 5937 5936 5936 5936 5936 5936 5936 5936 5935 5935 5934 5934 5933 5932 5931 5930 5929 5928 5927 5926 5925 5924 5923 5923 5922 5922 5921 5920 5920 5919 5917 5916 5915 5913 5912 5910 5909
5941 5941 5942 5942 5942 5942 5942 5942 5942 5942 5943 5943 5943 5942 5943 5943 5944 5943 5943 5943 5943 5943 5943 5942 5941 5941 5941 5940 5940 5940 5940 5940 5940 5940 5940 5940 5941 5941 5941 5941 5941 5940 5940 5939 5939 5938 5938 5938 5938 5937 5937 5937 5937 5937 5937 5937 5936 5936 5935 5935 5934 5933 5932 5931 5930 5928 5927 5926 5925 5924 5923 5923 5922 5922 5921 5920 5920 5918 5917 5916 5914 5913 5911 5910 5908
5941 5942 5942 5942 5942 5943 5943 5943 5943 5943 5943 5943 5943 5943 5943 5944 5944 5944 5944 5944 5944 5945 5944 5944 5943 5942 5942 5942 5941 5941 5940 5940 5941 5941 5942 5942 5942 5943 5942 5942 5942 5941 5941 5940 5940 5939 5939 5939 5939 5939 5939 5939 5939 5938 5938 5938 5937 5937 5936 5935 5934 5933 5932 5931 5930 5929 5928 5926 5925 5924 5923 5923 5922 5922 5921 5920 5919 5918 5917 5916 5914 5912 5911 5909 5907
5941 5942 5942 5942 5943 5943 5943 5943 5943 5943 5943 5944 5944 5944 5944 5944 5944 5944 5945 5945 5946 5946 5945 5945 5945 5944 5943 5943 5943 5942 5942 5942 5942 5943 5943 5943 5943 5943 5943 5943 5943 5942 5942 5941 5941 5941 5940 5940 5940 5940 5940 5940 5940 5939 5939 5939 5938 5937 5937 5936 5935 5934 5933 5932 5931 5930 5928 5927 5926 5925 5924 5923 5922 5921 5921 5920 5919 5918 5916 5915 5914 5912 5910 5908 5906
5941 5942 5942 5943 5943 5943 5944 5944 5944 5944 5944 5944 5944 5944 5945 5945 5945 5945 5946 5946 5947 5946 5946 5946 5946 5945 5945 5945 5944 5944 5943 5943 5943 5944 5944 5944 5944 5944 5944 5944 5943 5943 5942 5942 5942 5942 5942 5942 5942 5941 5941 5941 5940 5940 5940 5939 5939 5938 5937 5937 5936 5935 5934 5933 5931 5930 5929 5927 5926 5925 5924 5923 5922 5921 5920 5920 5918 5917 5916 5915 5913 5911 5909 5907 5906
5941 5942 5942 5943 5943 5944 5944 5944 5945 5945 5945 5945 5945 5945 5945 5946 5946 5946 5946 5947 5947 5947 5947 5946 5947 5946 5946 5945 5945 5945 5944 5944 5944 5944 5944 5944 5944 5944 5944 5944 5944 5944 5943 5943 5943 5943 5943 5943 5943 5942 5942 5942 5941 5941 5940 5940 5939 5939 5938 5937 5936 5935 5934 5933 5931 5930 5928 5927 5926 5924 5923 5923 5922 5921 5920 5919 5918 5917 5916 5914 5912 5911 5909 5907 5905
5941 5942 5943 5943 5943 5944 5945 5945 5945 5945 5945 5945 5945 5945 5945 5946 5946 5947 5947 5947 5948 5948 5947 5947 5947 5947 5947 5946 5946 5946 5945 5945 5945 5945 5945 5945 5945 5945 5945 5945 5945 5945 5944 5944 5944 5944 5944 5944 5944 5943 5943 5942 5942 5941 5941 5940 5940 5939 5938 5937 5936 5935 5934 5932 5931 5930 5928 5927 5925 5924 5923 5922 5921 5921 5920 5919 5918 5916 5915 5914 5912 5910 5908 5907 5905
5942 5942 5943 5943 5944 5945 5945 5945 5946 5946 5946 5946 5946 5946 5946 5946 5946 5947 5947 5948 5948 5948 5947 5947 5947 5948 5948 5948 5947 5947 5946 5946 5946 5946 5946 5946 5946 5946 5946 5946 5946 5946 5945 5945 5945 5945 5945 5944 5944 5943 5943 5942 5941 5941 5940 5940 5939 5939 5938 5937 5935 5934 5933 5932 5931 5929 5928 5926 5925 5924 5922 5922 5921 5920 5919 5918 5917 5916 5915 5913 5911 5910 5908 5906 5904
5942 5942 5943 5944 5944 5945 5945 5946 5946 5946 5946 5946 5946 5947 5947 5947 5947 5947 5947 5948 5948 5948 5948 5948 5948 5948 5948 5948 5948 5948 5948 5947 5947 5947 5947 5947 5946 5946 5946 5946 5946 5946 5946 5945 5945 5945 5945 5945 5944 5943 5943 5942 5941 5940 5940 5939 5939 5938 5937 5936 5935 5933 5932 5931 5930 5929 5927 5926 5925 5924 5922 5921 5920 5920 5919 5918 5917 5915 5914 5913 5911 5909 5907 5905 5902
5942 5943 5943 5944 5944 5945 5945 5946 5946 5946 5947 5947 5947 5947 5947 5947 5947 5948 5948 5948 5948 5948 5948 5948 5948 5948 5948 5948 5948 5949 5948 5948 5948 5947 5947 5948 5947 5947 5947 5946 5946 5946 5946 5946 5946 5946 5945 5945 5944 5943 5943 5942 5941 5940 5939 5939 5938 5937 5936 5935 5934 5932 5931 5931 5930 5929 5927 5926 5925 5924 5922 5921 5920 5919 5918 5917 5916 5915 5913 5912 5910 5908 5905 5903 5900
5942 5943 5943 5944 5944 5945 5945 5946 5947 5947 5947 5947 5948 5948 5948 5948 5948 5948 5948 5948 5948 5948 5949 5948 5948 5948 5949 5949 5949 5949 5949 5949 5949 5948 5948 5948 5948 5948 5947 5947 5947 5947 5947 5946 5946 5946 5946 5945 5944 5944 5943 5941 5940 5940 5939 5939 5938 5937 5936 5934 5933 5932 5931 5931 5930 5929 5927 5926 5925 5923 5922 5921 5920 5919 5917 5916 5915 5914 5912 5910 5908 5906 5904 5901 5898
5942 5942 5943 5944 5944 5945 5945 5946 5947 5947 5947 5948 5948 5948 5948 5948 5948 5948 5948 5948 5949 5949 5949 5949 5949 5949 5949 5949 5949 5949 5949 5950 5950 5949 5949 5949 5949 5949 5948 5948 5948 5948 5947 5947 5947 5946 5946 5945 5944 5943 5943 5942 5941 5940 5939 5939 5938 5937 5935 5934 5933 5932 5931 5931 5930 5929 5927 5926 5925 5923 5922 5921 5919 5918 5917 5916 5914 5913 5911 5909 5907 5905 5903 5900 5897
5941 5942 5943 5944 5944 5945 5945 5946 5946 5947 5948 5948 5948 5948 5948 5949 5949 5949 5949 5949 5949 5949 5949 5949 5949 5949 5949 5949 5949 5949 5949 5950 5950 5950 5949 5949 5949 5949 5949 5948 5948 5948 5948 5947 5947 5946 5946 5945 5944 5944 5943 5942 5941 5940 5939 5938 5937 5936 5935 5934 5933 5932 5932 5931 5930 5929 5927 5926 5924 5923 5921 5920 5919 5918 5916 5915 5913 5912 5910 5908 5906 5904 5902 5899 5896
5941 5942 5943 5944 5944 5945 5945 5946 5946 5947 5948 5948 5948 5948 5949 5949 5949 5949 5949 5949 5949 5949 5949 5949 5949 5949 5949 5949 5949 5949 5949 5949 5950 5950 5950 5949 5949 5950 5949 5949 5949 5949 5948 5948 5947 5946 5946 5945 5944 5944 5943 5942 5941 5940 5939 5938 5937 5936 5935 5934 5933 5932 5931 5931 5929 5928 5927 5925 5924 5922 5921 5919 5918 5917 5916 5914 5913 5911 5909 5907 5905 5903 5901 5898 5895
5940 5942 5943 5943 5944 5945 5945 5946 5946 5947 5947 5948 5948 5949 5949 5949 5949 5949 5949 5950 5950 5950 5950 5950 5949 5949 5949 5949 5949 5949 5949 5949 5949 5949 5950 5950 5950 5950 5949 5949 5949 5948 5948 5947 5947 5946 5945 5945 5944 5943 5942 5941 5940 5939 5938 5937 5936 5935 5935 5934 5933 5932 5931 5930 5929 5928 5926 5925 5923 5922 5920 5919 5917 5916 5915 5914 5912 5911 5909 5907 5905 5902 5900 5897 5894
5939 5941 5942 5943 5944 5944 5945 5945 5946 5946 5947 5948 5948 5949 5949 5949 5949 5949 5949 5950 5950 5950 5950 5950 5950 5949 5949 5948 5948 5948 5949 5949 5949 5949 5949 5949 5949 5949 5949 5949 5948 5948 5947 5947 5946 5946 5945 5944 5944 5943 5942 5941 5939 5938 5937 5936 5936 5935 5934 5934 5933 5932 5930 5929 5928 5927 5926 5925 5923 5921 5920 5918 5917 5916 5914 5913 5912 5910 5908 5906 5904 5901 5899 5896 5893
5938 5940 5941 5942 5943 5943 5944 5944 5945 5945 5946 5947 5948 5948 5948 5949 5949 5949 5949 5949 5949 5950 5950 5950 5950 5949 5949 5949 5948 5948 5948 5948 5948 5948 5948 5948 5948 5949 5948 5948 5948 5947 5947 5946 5945 5945 5945 5944 5943 5943 5942 5940 5939 5938 5937 5936 5935 5935 5934 5933 5932 5931 5930 5929 5927 5926 5925 5924 5923 5921 5920 5918 5917 5915 5914 5912 5911 5909 5907 5905 5903 5900 5898 5895 5892
5937 5939 5940 5941 5942 5942 5943 5943 5944 5944 5945 5946 5947 5947 5948 5948 5948 5948 5948 5949 5949 5949 5949 5949 5949 5949 5949 5948 5948 5948 5948 5947 5947 5947 5947 5948 5948 5948 5948 5948 5947 5946 5946 5945 5945 5945 5944 5944 5943 5942 5941 5940 5939 5938 5937 5936 5935 5935 5934 5933 5932 5931 5930 5928 5927 5926 5925 5923 5922 5920 5919 5918 5916 5915 5913 5911 5910 5908 5906 5904 5902 5899 5896 5894 5891
5936 5937 5939 5940 5941 5941 5942 5942 5942 5943 5944 5944 5945 5946 5946 5947 5947 5947 5948 5948 5948 5948 5948 5948 5948 5948 5948 5948 5947 5947 5947 5947 5947 5947 5947 5947 5947 5947 5947 5947 5946 5945 5945 5945 5944 5944 5944 5943 5943 5942 5941 5940 5939 5938 5937 5936 5935 5935 5934 5933 5932 5931 5929 5928 5926 5925 5924 5923 5921 5920 5918 5917 5915 5914 5912 5910 5908 5906 5904 5902 5900 5898 5895 5892 5889
5935 5936 5937 5939 5939 5940 5940 5941 5941 5942 5942 5943 5943 5944 5945 5946 5946 5946 5947 5947 5947 5947 5947 5947 5947 5947 5947 5947 5946 5946 5946 5946 5946 5946 5946 5946 5946 5947 5947 5946 5945 5945 5944 5944 5943 5943 5943 5943 5942 5941 5940 5939 5938 5938 5937 5936 5935 5934 5933 5932 5931 5930 5929 5927 5926 5924 5923 5922 5920 5919 5917 5916 5914 5913 5911 5909 5907 5905 5903 5901 5898 5896 5894 5891 5888
5934 5935 5936 5937 5938 5939 5939 5940 5940 5940 5941 5941 5942 5943 5944 5944 5945 5946 5946 5946 5946 5946 5946 5946 5946 5946 5946 5945 5945 5945 5945 5945 5945 5945 5945 5945 5946 5946 5945 5945 5944 5944 5944 5943 5943 5942 5942 5941 5941 5940 5940 5939 5938 5937 5936 5935 5934 5933 5933 5932 5931 5929 5928 5927 5925 5924 5922 5921 5919 5917 5916 5914 5913 5911 5909 5908 5905 5903 5901 5899 5896 5894 5892 5889 5886
5934 5935 5935 5936 5937 5938 5938 5938 5939 5939 5939 5940 5940 5941 5942 5943 5943 5944 5945 5945 5945 5945 5945 5945 5945 5945 5944 5944 5944 5944 5944 5944 5944 5944 5944 5944 5944 5944 5944 5944 5943 5943 5943 5942 5942 5942 5941 5940 5939 5939 5938 5938 5937 5936 5936 5935 5934 5933 5932 5931 5930 5928 5927 5926 5924 5923 5921 5920 5918 5916 5914 5912 5911 5909 5907 5906 5904 5901 5899 5897 5894 5892 5889 5887 5884
5933 5934 5935 5936 5936 5937 5937 5937 5937 5937 5938 5938 5939 5939 5940 5941 5941 5942 5943 5943 5943 5944 5944 5944 5944 5944 5943 5943 5943 5943 5943 5942 5942 5942 5942 5942 5942 5942 5942 5942 5942 5942 5941 5941 5941 5941 5940 5939 5938 5938 5937 5936 5935 5935 5934 5934 5933 5932 5931 5930 5929 5927 5926 5924 5923 5922 5920 5919 5917 5914 5912 5911 5909 5907 5905 5903 5901 5899 5897 5895 5892 5890 5887 5885 5882
5932 5933 5934 5935 5935 5935 5935 5935 5936 5936 5936 5936 5937 5938 5938 5939 5940 5940 5941 5941 5942 5942 5942 5942 5942 5942 5942 5942 5942 5942 5942 5942 5941 5941 5941 5941 5941 5940 5940 5940 5941 5940 5940 5940 5940 5940 5939 5938 5937 5937 5936 5935 5934 5933 5932 5932 5931 5930 5929 5928 5927 5926 5924 5923 5921 5920 5919 5917 5915 5913 5911 5909 5907 5905 5903 5901 5899 5897 5895 5893 5890 5888 5885 5883 5880
5930 5931 5932 5933 5934 5934 5934 5934 5934 5934 5934 5935 5935 5936 5937 5937 5938 5938 5939 5940 5940 5940 5941 5941 5941 5941 5941 5941 5941 5941 5941 5941 5941 5940 5940 5939 5939 5939 5939 5939 5939 5939 5939 5939 5938 5938 5938 5937 5936 5935 5935 5934 5933 5932 5930 5929 5928 5927 5926 5925 5925 5924 5923 5921 5919 5918 5917 5915 5914 5911 5909 5907 5905 5903 5901 5899 5897 5895 5893 5891 5888 5886 5883 5880 5878
5929 5930 5931 5932 5932 5932 5932 5933 5932 5932 5933 5933 5934 5934 5935 5936 5936 5937 5937 5938 5938 5939 5939 5939 5939 5939 5940 5940 5940 5940 5940 5940 5940 5940 5939 5939 5938 5938 5938 5938 5938 5937 5937 5937 5937 5936 5936 5936 5935 5934 5933 5932 5931 5930 5929 5927 5926 5925 5923 5922 5922 5921 5920 5919 5917 5915 5914 5913 5911 5909 5907 5905 5903 5901 5899 5897 5894 5892 5890 5888 5886 5884 5881 5878 5875
5927 5928 5929 5930 5930 5931 5931 5931 5931 5931 5931 5932 5932 5933 5934 5934 5935 5935 5936 5937 5937 5938 5938 5938 5938 5938 5939 5939 5939 5939 5940 5940 5939 5939 5939 5938 5938 5937 5937 5937 5937 5937 5936 5936 5935 5935 5934 5934 5933 5932 5931 5931 5929 5928 5927 5926 5925 5923 5921 5919 5919 5918 5916 5916 5915 5913 5911 5909 5908 5907 5905 5902 5900 5898 5896 5895 5892 5890 5888 5886 5883 5881 5879 5876 5873
5925 5926 5927 5928 5929 5930 5930 5930 5930 5930 5930 5930 5931 5931 5932 5933 5934 5934 5935 5935 5936 5937 5937 5937 5937 5937 5938 5938 5938 5939 5939 5939 5938 5938 5938 5938 5938 5937 5937 5936 5936 5936 5935 5935 5934 5933 5933 5932 5932 5931 5930 5929 5928 5926 5925 5924 5922 5921 5919 5917 5917 5915 5913 5913 5912 5910 5907 5906 5905 5904 5902 5900 5898 5896 5894 5892 5890 5888 5886 5884 5881 5878 5876 5874 5871
5923 5924 5926 5927 5928 5928 5928 5928 5928 5928 5929 5929 5929 5930 5931 5932 5932 5933 5934 5934 5935 5935 5936 5936 5936 5937 5937 5937 5938 5938 5938 5938 5937 5937 5937 5936 5936 5936 5935 5935 5935 5935 5934 5933 5933 5932 5931 5931 5930 5929 5928 5928 5926 5924 5923 5922 5919 5918 5917 5915 5914 5913 5911 5910 5910 5908 5904 5901 5901 5901 5900 5897 5894 5894 5892 5890 5887 5885 5883 5881 5879 5876 5874 5871 5869
5921 5922 5924 5925 5926 5926 5926 5927 5927 5927 5927 5927 5928 5928 5929 5930 5931 5932 5932 5933 5934 5934 5935 5935 5935 5936 5936 5937 5937 5937 5937 5936 5936 5936 5935 5935 5935 5934 5934 5933 5933 5933 5932 5932 5931 5930 5929 5929 5928 5927 5926 5926 5924 5922 5921 5919 5917 5915 5914 5913 5911 5910 5908 5907 5908 5906 5902 5898 5897 5898 5898 5895 5892 5891 5890 5888 5884 5881 5880 5878 5876 5874 5871 5869 5867
5919 5920 5922 5923 5924 5925 5925 5925 5925 5925 5926 5926 5926 5927 5927 5928 5929 5930 5931 5931 5932 5933 5933 5933 5934 5934 5935 5936 5936 5936 5935 5935 5934 5934 5934 5933 5933 5932 5932 5931 5931 5931 5930 5930 5929 5928 5927 5926 5926 5925 5924 5923 5922 5920 5918 5916 5914 5912 5911 5910 5908 5907 5905 5904 5904 5904 5901 5897 5894 5894 5895 5893 5889 5888 5887 5885 5881 5878 5877 5875 5873 5871 5869 5866 5864
5917 5919 5920 5921 5922 5923 5924 5924 5924 5924 5924 5924 5924 5925 5925 5926 5927 5928 5929 5930 5930 5931 5932 5932 5933 5933 5934 5934 5934 5934 5934 5933 5933 5933 5932 5932 5931 5930 5929 5929 5929 5929 5928 5927 5927 5926 5925 5924 5923 5923 5922 5919 5919 5918 5915 5912 5911 5909 5908 5906 5904 5903 5902 5901 5901 5900 5898 5895 5892 5890 5891 5890 5886 5884 5884 5882 5877 5874 5873 5872 5870 5868 5866 5863 5861
5916 5917 5918 5919 5921 5921 5922 5922 5922 5922 5923 5923 5923 5923 5924 5924 5925 5926 5927 5928 5929 5930 5930 5931 5931 5932 5932 5933 5933 5933 5932 5932 5932 5931 5931 5930 5929 5928 5928 5927 5927 5927 5926 5925 5924 5923 5922 5921 5920 5920 5919 5916 5915 5915 5912 5909 5908 5906 5904 5903 5901 5899 5898 5898 5898 5896 5894 5892 5889 5887 5888 5888 5882 5879 5880 5878 5873 5870 5869 5868 5866 5864 5862 5860 5858
5914 5915 5916 5918 5919 5920 5920 5920 5920 5921 5921 5921 5921 5922 5922 5923 5924 5925 5926 5927 5928 5928 5929 5929 5930 5930 5931 5931 5931 5931 5931 5930 5930 5929 5929 5927 5926 5926 5926 5925 5925 5924 5924 5923 5922 5920 5919 5917 5916 5917 5916 5913 5912 5911 5910 5907 5904 5903 5901 5899 5897 5895 5894 5894 5893 5891 5889 5887 5885 5883 5884 5884 5879 5875 5876 5874 5869 5867 5865 5863 5862 5860 5857 5856 5854
5911 5912 5914 5916 5917 5917 5918 5918 5919 5919 5919 5920 5920 5920 5920 5921 5922 5924 5925 5925 5926 5927 5927 5928 5928 5928 5929 5929 5929 5929 5929 5928 5928 5927 5926 5924 5924 5924 5923 5922 5922 5921 5921 5920 5918 5917 5916 5914 5913 5912 5911 5911 5909 5908 5907 5904 5901 5899 5896 5894 5893 5890 5888 5888 5888 5887 5885 5883 5881 5878 5877 5878 5875 5870 5869 5867 5863 5862 5861 5858 5857 5855 5853 5851 5850
5908 5910 5912 5913 5914 5914 5915 5916 5917 5917 5917 5918 5918 5918 5918 5919 5921 5922 5923 5924 5924 5925 5926 5926 5926 5927 5927 5927 5927 5927 5927 5926 5925 5924 5923 5921 5921 5920 5920 5919 5918 5918 5918 5917 5915 5914 5913 5911 5910 5909 5907 5907 5906 5905 5903 5900 5897 5893 5889 5888 5888 5882 5878 5879 5881 5881 5881 5879 5878 5872 5867 5868 5867 5862 5861 5860 5857 5856 5856 5853 5852 5850 5848 5847 5844
5906 5907 5908 5909 5910 5912 5913 5914 5915 5915 5914 5915 5915 5916 5916 5917 5918 5920 5921 5921 5922 5923 5924 5924 5924 5925 5925 5925 5925 5925 5924 5924 5922 5921 5920 5918 5918 5918 5916 5915 5915 5915 5914 5912 5911 5911 5910 5909 5908 5906 5904 5903 5901 5900 5898 5895 5891 5886 5881 5882 5880 5872 5868 5871 5874 5876 5877 5877 5875 5868 5859 5858 5858 5854 5852 5851 5849 5849 5849 5847 5845 5844 5843 5841 5839
5904 5904 5905 5906 5908 5909 5910 5911 5912 5912 5912 5912 5912 5913 5914 5914 5916 5917 5918 5918 5920 5921 5921 5922 5922 5922 5923 5923 5923 5922 5921 5921 5919 5919 5917 5916 5915 5914 5913 5911 5911 5911 5909 5907 5907 5907 5907 5906 5906 5904 5902 5899 5896 5895 5894 5890 5885 5880 5875 5873 5871 5866 5865 5869 5872 5872 5872 5873 5872 5864 5855 5853 5851 5848 5846 5843 5840 5841 5842 5840 5838 5837 5836 5835 5833